,,PA_Meas_PMT16A,,PR_Meas_QMR101_102,,RH_Meas_QMH101,,SR_Meas_QMS101,,TA_Meas_QMH101,,GenWind,,GenWind,
time,status,PA,status,PR,status,RH,status,SR,status,TA,status,DirAvg,status,SpdAvg,
2013-12-05, 00:00:05,VALID,916.335,VALID,0,VALID,92.6169,VALID,0,VALID,20.2309,VALID,353,VALID,0,
2013-12-05, 00:01:05,VALID,916.306,VALID,0,VALID,92.5559,VALID,0,VALID,20.2309,VALID,353,VALID,0,
2013-12-05, 00:02:05,VALID,916.323,VALID,0,VALID,92.5635,VALID,0,VALID,20.2309,VALID,341,VALID,0,
2013-12-05, 00:03:05,VALID,916.305,VALID,0,VALID,92.777,VALID,0,VALID,20.2504,VALID,339,VALID,0,
2013-12-05, 00:04:05,VALID,916.311,VALID,0,VALID,92.8685,VALID,0,VALID,20.2309,VALID,346,VALID,0,
2013-12-05, 00:05:05,VALID,916.3,VALID,0,VALID,93.0514,VALID,0,VALID,20.2114,VALID,339,VALID,0,
2013-12-05, 00:06:05,VALID,916.294,VALID,0,VALID,93.1963,VALID,0,VALID,20.2309,VALID,340,VALID,0,
2013-12-05, 00:07:05,VALID,916.302,VALID,0,VALID,93.364,VALID,0,VALID,20.1919,VALID,339,VALID,0,
2013-12-05, 00:08:05,VALID,916.283,VALID,0,VALID,93.4707,VALID,0,VALID,20.2129,VALID,340,VALID,0,
2013-12-05, 00:09:05,VALID,916.263,VALID,0,VALID,93.5164,VALID,0,VALID,20.1529,VALID,337,VALID,0,
2013-12-05, 00:10:05,VALID,916.267,VALID,0,VALID,93.4783,VALID,0,VALID,20.1529,VALID,337,VALID,0,
2013-12-05, 00:11:05,VALID,916.269,VALID,0,VALID,93.3945,VALID,0,VALID,20.1139,VALID,337,VALID,0,
2013-12-05, 00:12:05,VALID,916.246,VALID,0,VALID,93.3564,VALID,0,VALID,20.0733,VALID,337,VALID,0,
2013-12-05, 00:13:05,VALID,916.252,VALID,0,VALID,93.2725,VALID,0,VALID,20.0538,VALID,337,VALID,0,
2013-12-05, 00:14:05,VALID,916.291,VALID,0,VALID,93.2268,VALID,0,VALID,20.0553,VALID,337,VALID,0,
2013-12-05, 00:15:05,VALID,916.26,VALID,0,VALID,93.2801,VALID,0,VALID,20.0163,VALID,337,VALID,0,
2013-12-05, 00:16:05,VALID,916.26,VALID,0,VALID,93.3106,VALID,0,VALID,20.0163,VALID,337,VALID,0,
2013-12-05, 00:17:05,VALID,916.265,VALID,0,VALID,93.2801,VALID,0,VALID,19.9968,VALID,337,VALID,0,
2013-12-05, 00:18:05,VALID,916.247,VALID,0,VALID,93.2801,VALID,0,VALID,19.9773,VALID,337,VALID,0,
2013-12-05, 00:19:05,VALID,916.212,VALID,0,VALID,93.2649,VALID,0,VALID,19.9968,VALID,337,VALID,0,
2013-12-05, 00:20:05,VALID,916.212,VALID,0,VALID,93.3335,VALID,0,VALID,19.9563,VALID,337,VALID,0,
2013-12-05, 00:21:05,VALID,916.206,VALID,0,VALID,93.2725,VALID,0,VALID,19.9773,VALID,337,VALID,0,
2013-12-05, 00:22:05,VALID,916.231,VALID,0,VALID,93.242,VALID,0,VALID,19.9563,VALID,337,VALID,0,
2013-12-05, 00:23:05,VALID,916.228,VALID,0,VALID,93.1963,VALID,0,VALID,19.9578,VALID,337,VALID,0,
2013-12-05, 00:24:05,VALID,916.231,VALID,0,VALID,93.1886,VALID,0,VALID,19.9383,VALID,337,VALID,0,
2013-12-05, 00:25:05,VALID,916.25,VALID,0,VALID,93.0743,VALID,0,VALID,19.9188,VALID,337,VALID,0,
2013-12-05, 00:26:05,VALID,916.23,VALID,0,VALID,92.9066,VALID,0,VALID,19.8993,VALID,337,VALID,0,
2013-12-05, 00:27:05,VALID,916.262,VALID,0,VALID,92.9523,VALID,0,VALID,19.8798,VALID,337,VALID,0,
2013-12-05, 00:28:05,VALID,916.243,VALID,0,VALID,93.0438,VALID,0,VALID,19.8408,VALID,337,VALID,0,
2013-12-05, 00:29:05,VALID,916.251,VALID,0,VALID,93.1048,VALID,0,VALID,19.8228,VALID,337,VALID,0,
2013-12-05, 00:30:05,VALID,916.269,VALID,0,VALID,93.1124,VALID,0,VALID,19.8018,VALID,356,VALID,0,
2013-12-05, 00:31:05,VALID,916.204,VALID,0,VALID,93.0895,VALID,0,VALID,19.8018,VALID,356,VALID,0,
2013-12-05, 00:32:05,VALID,916.198,VALID,0,VALID,93.0209,VALID,0,VALID,19.8018,VALID,356,VALID,0,
2013-12-05, 00:33:05,VALID,916.192,VALID,0,VALID,93.0133,VALID,0,VALID,19.8213,VALID,356,VALID,0,
2013-12-05, 00:34:05,VALID,916.186,VALID,0,VALID,92.9981,VALID,0,VALID,19.7823,VALID,356,VALID,0,
2013-12-05, 00:35:05,VALID,916.164,VALID,0,VALID,93.0057,VALID,0,VALID,19.7823,VALID,356,VALID,0,
2013-12-05, 00:36:05,VALID,916.146,VALID,0,VALID,93.0285,VALID,0,VALID,19.7433,VALID,356,VALID,0,
2013-12-05, 00:37:05,VALID,916.125,VALID,0,VALID,93.0895,VALID,0,VALID,19.6848,VALID,356,VALID,0,
2013-12-05, 00:38:05,VALID,916.096,VALID,0,VALID,93.242,VALID,0,VALID,19.6848,VALID,356,VALID,0,
2013-12-05, 00:39:05,VALID,916.093,VALID,0,VALID,93.4173,VALID,0,VALID,19.6653,VALID,356,VALID,0,
2013-12-05, 00:40:05,VALID,916.074,VALID,0,VALID,93.5317,VALID,0,VALID,19.6263,VALID,356,VALID,0,
2013-12-05, 00:41:05,VALID,916.072,VALID,0,VALID,93.707,VALID,0,VALID,19.6068,VALID,356,VALID,0,
2013-12-05, 00:42:05,VALID,916.102,VALID,0,VALID,93.8061,VALID,0,VALID,19.5678,VALID,356,VALID,0,
2013-12-05, 00:43:05,VALID,916.078,VALID,0,VALID,94.1187,VALID,0.107441,VALID,19.5468,VALID,356,VALID,0,
2013-12-05, 00:44:05,VALID,916.104,VALID,0,VALID,94.5075,VALID,0.107441,VALID,19.5483,INVALID,360,VALID,0,
2013-12-05, 00:45:05,VALID,916.065,VALID,0,VALID,94.9039,VALID,0.107441,VALID,19.5273,VALID,356,VALID,0,
2013-12-05, 00:46:05,VALID,916.051,VALID,0,VALID,95.1783,VALID,0.107441,VALID,19.5273,VALID,356,VALID,0,
2013-12-05, 00:47:05,VALID,916.049,VALID,0,VALID,95.3537,VALID,0,VALID,19.4883,VALID,356,VALID,0,
2013-12-05, 00:48:05,VALID,916.004,VALID,0,VALID,95.4528,VALID,0,VALID,19.4298,VALID,356,VALID,0,
2013-12-05, 00:49:05,VALID,916.021,VALID,0,VALID,95.6129,VALID,0,VALID,19.4313,VALID,356,VALID,0,
2013-12-05, 00:50:05,VALID,916.03,VALID,0,VALID,95.7044,VALID,0,VALID,19.4118,VALID,356,VALID,0,
2013-12-05, 00:51:05,VALID,916.066,VALID,0,VALID,95.8111,VALID,0.107441,VALID,19.4313,VALID,356,VALID,0,
2013-12-05, 00:52:05,VALID,916.064,VALID,0,VALID,95.8873,VALID,0.107441,VALID,19.3908,VALID,356,VALID,0,
2013-12-05, 00:53:05,VALID,916.038,VALID,0,VALID,95.9254,VALID,0,VALID,19.3713,VALID,208,VALID,0,
2013-12-05, 00:54:05,VALID,916.057,VALID,0,VALID,96.0169,VALID,0,VALID,19.3713,VALID,191,VALID,0,
2013-12-05, 00:55:05,VALID,916.068,VALID,0,VALID,96.1313,VALID,0,VALID,19.3908,VALID,190,VALID,0,
2013-12-05, 00:56:05,VALID,916.064,VALID,0,VALID,96.1846,VALID,0.107441,VALID,19.4103,VALID,190,VALID,0,
2013-12-05, 00:57:05,VALID,916.099,VALID,0,VALID,96.2685,VALID,0,VALID,19.4103,VALID,177,VALID,0,
2013-12-05, 00:58:05,VALID,916.064,VALID,0,VALID,96.299,VALID,0,VALID,19.4103,VALID,177,VALID,0,
2013-12-05, 00:59:05,VALID,916.085,VALID,0,VALID,96.36,VALID,0,VALID,19.4103,VALID,177,VALID,0,
2013-12-05, 01:00:05,VALID,916.069,VALID,0,VALID,96.421,VALID,0,VALID,19.4298,VALID,177,VALID,0,
2013-12-05, 01:01:05,VALID,916.051,VALID,0,VALID,96.4591,VALID,0,VALID,19.4313,VALID,177,VALID,0,
2013-12-05, 01:02:05,VALID,916.046,VALID,0,VALID,96.4972,VALID,0,VALID,19.4103,VALID,177,VALID,0,
2013-12-05, 01:03:05,VALID,916.076,VALID,0,VALID,96.4819,VALID,0,VALID,19.3908,VALID,177,VALID,0,
2013-12-05, 01:04:05,VALID,916.082,VALID,0,VALID,96.5201,VALID,0,VALID,19.3923,VALID,177,VALID,0,
2013-12-05, 01:05:05,VALID,916.121,VALID,0,VALID,96.5582,VALID,0,VALID,19.3908,VALID,177,VALID,0,
2013-12-05, 01:06:05,VALID,916.131,VALID,0,VALID,96.5734,VALID,0,VALID,19.4118,VALID,177,VALID,0,
2013-12-05, 01:07:05,VALID,916.132,VALID,0,VALID,96.5887,VALID,0,VALID,19.3908,VALID,177,VALID,0,
2013-12-05, 01:08:05,VALID,916.126,VALID,0,VALID,96.5963,VALID,0,VALID,19.3923,VALID,177,VALID,0,
2013-12-05, 01:09:05,VALID,916.116,VALID,0,VALID,96.6115,VALID,0,VALID,19.3533,VALID,177,VALID,0,
2013-12-05, 01:10:05,VALID,916.098,VALID,0,VALID,96.5963,VALID,0.107441,VALID,19.3338,VALID,177,VALID,0,
2013-12-05, 01:11:04,VALID,916.105,VALID,0,VALID,96.5963,VALID,0,VALID,19.3128,VALID,177,VALID,0,
2013-12-05, 01:12:04,VALID,916.079,VALID,0,VALID,96.5887,VALID,0,VALID,19.2738,VALID,177,VALID,0,
2013-12-05, 01:13:04,VALID,916.075,VALID,0,VALID,96.5887,VALID,0,VALID,19.2363,VALID,177,VALID,0,
2013-12-05, 01:14:04,VALID,916.077,VALID,0,VALID,96.6115,VALID,0,VALID,19.2558,VALID,177,VALID,0,
2013-12-05, 01:15:04,VALID,916.043,VALID,0,VALID,96.6344,VALID,0,VALID,19.2753,VALID,177,VALID,0,
2013-12-05, 01:16:04,VALID,916.033,VALID,0,VALID,96.6573,VALID,0,VALID,19.2153,VALID,177,VALID,0,
2013-12-05, 01:17:04,VALID,916.014,VALID,0,VALID,96.6192,VALID,0,VALID,19.1583,VALID,177,VALID,0,
2013-12-05, 01:18:04,VALID,915.99,VALID,0,VALID,96.6039,VALID,0,VALID,19.0983,VALID,177,VALID,0,
2013-12-05, 01:19:04,VALID,915.981,VALID,0,VALID,96.5582,VALID,0,VALID,19.0608,VALID,177,VALID,0,
2013-12-05, 01:20:04,VALID,915.898,VALID,0,VALID,96.5582,VALID,0,VALID,18.9828,VALID,177,VALID,0,
2013-12-05, 01:21:04,VALID,915.878,VALID,0,VALID,96.5277,VALID,0.107441,VALID,18.9229,VALID,177,VALID,0,
2013-12-05, 01:22:04,VALID,915.882,VALID,0,VALID,96.5963,VALID,0,VALID,18.9828,VALID,177,VALID,0,
2013-12-05, 01:23:04,VALID,915.834,VALID,0,VALID,96.642,VALID,0,VALID,19.0413,VALID,177,VALID,0,
2013-12-05, 01:24:04,VALID,915.796,VALID,0,VALID,96.6573,VALID,0,VALID,19.0622,VALID,177,VALID,0,
2013-12-05, 01:25:04,VALID,915.82,VALID,0,VALID,96.6954,VALID,0,VALID,19.0593,VALID,177,VALID,0,
2013-12-05, 01:26:04,VALID,915.802,VALID,0,VALID,96.7183,VALID,0,VALID,19.0593,VALID,177,VALID,0,
2013-12-05, 01:27:04,VALID,915.792,VALID,0,VALID,96.7183,VALID,0,VALID,19.0998,VALID,177,VALID,0,
2013-12-05, 01:28:04,VALID,915.794,VALID,0,VALID,96.7488,VALID,0,VALID,19.0788,VALID,177,VALID,0,
2013-12-05, 01:29:04,VALID,915.766,VALID,0,VALID,96.764,VALID,0,VALID,19.0983,VALID,177,VALID,0,
2013-12-05, 01:30:04,VALID,915.766,VALID,0,VALID,96.764,VALID,0,VALID,19.0788,VALID,177,VALID,0,
2013-12-05, 01:31:04,VALID,915.757,VALID,0,VALID,96.7716,VALID,0,VALID,19.1178,VALID,177,VALID,0,
2013-12-05, 01:32:04,VALID,915.722,VALID,0,VALID,96.7793,VALID,0,VALID,19.1583,VALID,177,VALID,0,
2013-12-05, 01:33:04,VALID,915.712,VALID,0,VALID,96.7716,VALID,0,VALID,19.1778,VALID,177,VALID,0,
2013-12-05, 01:34:04,VALID,915.706,VALID,0,VALID,96.7945,VALID,0,VALID,19.1763,VALID,177,VALID,0,
2013-12-05, 01:35:04,VALID,915.68,VALID,0,VALID,96.8021,VALID,0,VALID,19.2348,VALID,177,VALID,0,
2013-12-05, 01:36:04,VALID,915.691,VALID,0,VALID,96.8098,VALID,0,VALID,19.2558,VALID,177,VALID,0,
2013-12-05, 01:37:04,VALID,915.683,VALID,0,VALID,96.8021,VALID,0,VALID,19.2363,VALID,177,VALID,0,
2013-12-05, 01:38:04,VALID,915.672,VALID,0,VALID,96.7869,VALID,0,VALID,19.1973,VALID,177,VALID,0,
2013-12-05, 01:39:04,VALID,915.67,VALID,0,VALID,96.7793,VALID,0,VALID,19.1973,VALID,177,VALID,0,
2013-12-05, 01:40:04,VALID,915.663,VALID,0,VALID,96.7945,VALID,0,VALID,19.1973,VALID,177,VALID,0,
2013-12-05, 01:41:04,VALID,915.649,VALID,0,VALID,96.7793,VALID,0,VALID,19.1778,VALID,177,VALID,0,
2013-12-05, 01:42:04,VALID,915.635,VALID,0,VALID,96.7869,VALID,0,VALID,19.1973,VALID,177,VALID,0,
2013-12-05, 01:43:04,VALID,915.602,VALID,0,VALID,96.8021,VALID,0,VALID,19.1973,VALID,177,VALID,0,
2013-12-05, 01:44:04,VALID,915.586,VALID,0,VALID,96.8098,VALID,0,VALID,19.1973,VALID,177,VALID,0,
2013-12-05, 01:45:04,VALID,915.584,VALID,0,VALID,96.825,VALID,0,VALID,19.2168,VALID,177,VALID,0,
2013-12-05, 01:46:04,VALID,915.562,VALID,0,VALID,96.825,VALID,0,VALID,19.2363,VALID,177,VALID,0,
2013-12-05, 01:47:04,VALID,915.564,VALID,0,VALID,96.8631,VALID,0,VALID,19.1973,VALID,177,VALID,0,
2013-12-05, 01:48:04,VALID,915.523,VALID,0,VALID,96.8479,VALID,0,VALID,19.1178,VALID,159,VALID,0,
2013-12-05, 01:49:04,VALID,915.49,VALID,0,VALID,96.8479,VALID,0,VALID,19.1178,VALID,154,VALID,0,
2013-12-05, 01:50:04,VALID,915.492,VALID,0,VALID,96.8479,VALID,0,VALID,19.1193,VALID,154,VALID,0,
2013-12-05, 01:51:04,VALID,915.477,VALID,0,VALID,96.8479,VALID,0,VALID,19.1388,VALID,154,VALID,0,
2013-12-05, 01:52:04,VALID,915.477,VALID,0,VALID,96.8403,VALID,0,VALID,19.1178,VALID,154,VALID,0,
2013-12-05, 01:53:04,VALID,915.462,VALID,0,VALID,96.8707,VALID,0,VALID,19.1388,VALID,154,VALID,0,
2013-12-05, 01:54:04,VALID,915.448,VALID,0,VALID,96.8479,VALID,0,VALID,19.1193,VALID,154,VALID,0,
2013-12-05, 01:55:04,VALID,915.449,VALID,0,VALID,96.8479,VALID,0,VALID,19.1583,VALID,154,VALID,0,
2013-12-05, 01:56:04,VALID,915.405,VALID,0,VALID,96.8784,VALID,0,VALID,19.1583,VALID,154,VALID,0,
2013-12-05, 01:57:04,VALID,915.378,VALID,0,VALID,96.886,VALID,0,VALID,19.1792,VALID,154,VALID,0,
2013-12-05, 01:58:04,VALID,915.358,VALID,0,VALID,96.886,VALID,0.107441,VALID,19.1763,VALID,154,VALID,0,
2013-12-05, 01:59:04,VALID,915.276,VALID,0,VALID,96.8936,VALID,0,VALID,19.2168,VALID,154,VALID,0,
2013-12-05, 02:00:04,VALID,915.319,VALID,0,VALID,96.8936,VALID,0.107441,VALID,19.1958,VALID,154,VALID,0,
2013-12-05, 02:01:04,VALID,915.308,VALID,0,VALID,96.9012,VALID,0,VALID,19.2168,VALID,154,VALID,0,
2013-12-05, 02:02:04,VALID,915.272,VALID,0,VALID,96.9165,VALID,0.107441,VALID,19.1958,VALID,154,VALID,0,
2013-12-05, 02:03:04,VALID,915.306,VALID,0,VALID,96.9165,VALID,0,VALID,19.1958,VALID,157,VALID,0,
2013-12-05, 02:04:04,VALID,915.284,VALID,0,VALID,96.9241,VALID,0.107441,VALID,19.2168,VALID,157,VALID,0,
2013-12-05, 02:05:04,VALID,915.287,VALID,0,VALID,96.9317,VALID,0.107441,VALID,19.1958,VALID,157,VALID,0,
2013-12-05, 02:06:04,VALID,915.304,VALID,0,VALID,96.9241,VALID,0,VALID,19.2348,VALID,157,VALID,0,
2013-12-05, 02:07:04,VALID,915.31,VALID,0,VALID,96.9394,VALID,0.107441,VALID,19.2348,VALID,157,VALID,0,
2013-12-05, 02:08:04,VALID,915.319,VALID,0,VALID,96.9394,VALID,0,VALID,19.2543,VALID,157,VALID,0,
2013-12-05, 02:09:04,VALID,915.292,VALID,0,VALID,96.9394,VALID,0,VALID,19.2948,VALID,171,VALID,0,
2013-12-05, 02:10:04,VALID,915.291,VALID,0,VALID,96.9698,VALID,0.107441,VALID,19.2933,VALID,171,VALID,0,
2013-12-05, 02:11:04,VALID,915.307,VALID,0,VALID,96.9546,VALID,0,VALID,19.2933,VALID,174,VALID,0,
2013-12-05, 02:12:04,VALID,915.308,VALID,0,VALID,96.9622,VALID,0.107441,VALID,19.3128,VALID,175,VALID,0,
2013-12-05, 02:13:04,VALID,915.314,VALID,0,VALID,96.9775,VALID,0.107441,VALID,19.3143,VALID,177,VALID,0,
2013-12-05, 02:14:04,VALID,915.31,VALID,0,VALID,96.9546,VALID,0,VALID,19.3323,VALID,177,VALID,0,
2013-12-05, 02:15:04,VALID,915.317,VALID,0,VALID,96.9851,VALID,0,VALID,19.3323,VALID,177,VALID,0,
2013-12-05, 02:16:04,VALID,915.328,VALID,0,VALID,96.9927,VALID,0.107441,VALID,19.3128,VALID,177,VALID,0,
2013-12-05, 02:17:04,VALID,915.326,VALID,0,VALID,96.9927,VALID,0.107441,VALID,19.3518,VALID,177,VALID,0,
2013-12-05, 02:18:04,VALID,915.309,VALID,0,VALID,96.9927,VALID,0.107441,VALID,19.3323,VALID,177,VALID,0,
2013-12-05, 02:19:04,VALID,915.276,VALID,0,VALID,97.0003,VALID,0.107441,VALID,19.3518,VALID,177,VALID,0,
2013-12-05, 02:20:04,VALID,915.282,VALID,0,VALID,97.0003,VALID,0,VALID,19.3713,VALID,177,VALID,0,
2013-12-05, 02:21:04,VALID,915.302,VALID,0,VALID,97.0003,VALID,0,VALID,19.3518,VALID,177,VALID,0,
2013-12-05, 02:22:04,VALID,915.312,VALID,0,VALID,97.0003,VALID,0,VALID,19.3518,VALID,177,VALID,0,
2013-12-05, 02:23:04,VALID,915.307,VALID,0,VALID,97.0003,VALID,0,VALID,19.3518,VALID,177,VALID,0,
2013-12-05, 02:24:04,VALID,915.319,VALID,0,VALID,97.008,VALID,0,VALID,19.3713,VALID,177,VALID,0,
2013-12-05, 02:25:04,VALID,915.303,VALID,0,VALID,97.0232,VALID,0,VALID,19.3908,VALID,177,VALID,0,
2013-12-05, 02:26:04,VALID,915.301,VALID,0,VALID,97.0232,VALID,0.107441,VALID,19.3908,VALID,177,VALID,0,
2013-12-05, 02:27:04,VALID,915.289,VALID,0,VALID,97.0156,VALID,0.107441,VALID,19.3908,VALID,177,VALID,0,
2013-12-05, 02:28:04,VALID,915.292,VALID,0,VALID,97.0156,VALID,0.107441,VALID,19.4313,VALID,177,VALID,0,
2013-12-05, 02:29:04,VALID,915.26,VALID,0,VALID,97.0156,VALID,0,VALID,19.4313,VALID,177,VALID,0,
2013-12-05, 02:30:04,VALID,915.268,VALID,0,VALID,97.0232,VALID,0,VALID,19.4298,VALID,177,VALID,0,
2013-12-05, 02:31:04,VALID,915.233,VALID,0,VALID,97.008,VALID,0,VALID,19.4688,VALID,177,VALID,0,
2013-12-05, 02:32:04,VALID,915.26,VALID,0,VALID,97.008,VALID,0,VALID,19.4883,VALID,177,VALID,0,
2013-12-05, 02:33:04,VALID,915.224,VALID,0,VALID,97.0461,VALID,0,VALID,19.4688,VALID,177,VALID,0,
2013-12-05, 02:34:04,VALID,915.216,VALID,0,VALID,97.0461,VALID,0,VALID,19.4298,VALID,177,VALID,0,
2013-12-05, 02:35:04,VALID,915.216,VALID,0,VALID,97.0385,VALID,0.107441,VALID,19.3923,VALID,177,VALID,0,
2013-12-05, 02:36:04,VALID,915.178,VALID,0,VALID,97.0385,VALID,0,VALID,19.4313,VALID,177,VALID,0,
2013-12-05, 02:37:04,VALID,915.19,VALID,0,VALID,97.0385,VALID,0,VALID,19.4508,VALID,177,VALID,0,
2013-12-05, 02:38:04,VALID,915.186,VALID,0,VALID,97.0461,VALID,0.107441,VALID,19.4103,VALID,177,VALID,0,
2013-12-05, 02:39:04,VALID,915.179,VALID,0,VALID,97.0537,VALID,0,VALID,19.3533,VALID,147,VALID,0,
2013-12-05, 02:40:04,VALID,915.177,VALID,0,VALID,97.0537,VALID,0,VALID,19.2933,VALID,147,VALID,0,
2013-12-05, 02:41:04,VALID,915.131,VALID,0,VALID,97.0537,VALID,0,VALID,19.3143,VALID,147,VALID,0,
2013-12-05, 02:42:04,VALID,915.138,VALID,0,VALID,97.0156,VALID,0,VALID,19.2948,VALID,147,VALID,0,
2013-12-05, 02:43:04,VALID,915.151,VALID,0,VALID,97.0308,VALID,0,VALID,19.2738,VALID,147,VALID,0,
2013-12-05, 02:44:04,VALID,915.094,VALID,0,VALID,97.0156,VALID,0.107441,VALID,19.2933,VALID,147,VALID,0,
2013-12-05, 02:45:04,VALID,915.089,VALID,0,VALID,97.0385,VALID,0,VALID,19.2738,VALID,147,VALID,0,
2013-12-05, 02:46:04,VALID,915.085,VALID,0,VALID,97.0613,VALID,0.107441,VALID,19.2348,VALID,147,VALID,0,
2013-12-05, 02:47:04,VALID,915.075,VALID,0,VALID,97.0461,VALID,0.107441,VALID,19.2348,VALID,147,VALID,0,
2013-12-05, 02:48:04,VALID,915.101,VALID,0,VALID,97.0308,VALID,0.107441,VALID,19.2543,VALID,147,VALID,0,
2013-12-05, 02:49:04,VALID,915.078,VALID,0,VALID,97.0385,VALID,0.107441,VALID,19.2528,VALID,146,VALID,0,
2013-12-05, 02:50:04,VALID,915.102,VALID,0,VALID,97.069,VALID,0,VALID,19.2933,VALID,147,VALID,0,
2013-12-05, 02:51:04,VALID,915.089,VALID,0,VALID,97.0461,VALID,0,VALID,19.2933,VALID,146,VALID,0,
2013-12-05, 02:52:04,VALID,915.08,VALID,0,VALID,97.0537,VALID,0.107441,VALID,19.3143,VALID,140,VALID,0,
2013-12-05, 02:53:04,VALID,915.035,VALID,0,VALID,97.0613,VALID,0,VALID,19.2738,VALID,127,VALID,0,
2013-12-05, 02:54:04,VALID,915.046,VALID,0,VALID,97.0766,VALID,0.107441,VALID,19.2738,VALID,127,VALID,0,
2013-12-05, 02:55:04,VALID,915.043,VALID,0,VALID,97.0613,VALID,0,VALID,19.2738,VALID,127,VALID,0,
2013-12-05, 02:56:04,VALID,915.019,VALID,0,VALID,97.0766,VALID,0.107441,VALID,19.2543,VALID,127,VALID,0,
2013-12-05, 02:57:04,VALID,915.054,VALID,0,VALID,97.0842,VALID,0,VALID,19.2348,VALID,127,VALID,0,
2013-12-05, 02:58:04,VALID,915.061,VALID,0,VALID,97.0918,VALID,0,VALID,19.2558,VALID,127,VALID,0,
2013-12-05, 02:59:04,VALID,915.034,VALID,0,VALID,97.069,VALID,0,VALID,19.2543,VALID,127,VALID,0,
2013-12-05, 03:00:04,VALID,915.01,VALID,0,VALID,97.0918,VALID,0,VALID,19.2738,VALID,127,VALID,0,
2013-12-05, 03:01:04,VALID,915.01,VALID,0,VALID,97.0994,VALID,0,VALID,19.3128,VALID,127,VALID,0,
2013-12-05, 03:02:04,VALID,914.994,VALID,0,VALID,97.1071,VALID,0.107441,VALID,19.3323,VALID,127,VALID,0,
2013-12-05, 03:03:04,VALID,915.006,VALID,0,VALID,97.0842,VALID,0,VALID,19.3323,VALID,127,VALID,0,
2013-12-05, 03:04:04,VALID,915.013,VALID,0,VALID,97.0918,VALID,0,VALID,19.3728,VALID,127,VALID,0,
2013-12-05, 03:05:04,VALID,915.003,VALID,0,VALID,97.1071,VALID,0,VALID,19.3308,VALID,127,VALID,0,
2013-12-05, 03:06:04,VALID,914.977,VALID,0,VALID,97.1071,VALID,0,VALID,19.3713,VALID,127,VALID,0,
2013-12-05, 03:07:04,VALID,914.953,VALID,0,VALID,97.0842,VALID,0,VALID,19.3908,VALID,127,VALID,0,
2013-12-05, 03:08:04,VALID,914.949,VALID,0,VALID,97.1299,VALID,0.107441,VALID,19.4103,VALID,127,VALID,0,
2013-12-05, 03:09:04,VALID,914.916,VALID,0,VALID,97.1223,VALID,0,VALID,19.3713,VALID,127,VALID,0,
2013-12-05, 03:10:04,VALID,914.882,VALID,0,VALID,97.1223,VALID,0,VALID,19.3518,VALID,127,VALID,0,
2013-12-05, 03:11:04,VALID,914.878,VALID,0,VALID,97.0994,VALID,0.107441,VALID,19.3533,VALID,127,VALID,0,
2013-12-05, 03:12:04,VALID,914.847,VALID,0,VALID,97.1071,VALID,0,VALID,19.3128,VALID,127,VALID,0,
2013-12-05, 03:13:04,VALID,914.871,VALID,0,VALID,97.1223,VALID,0.107441,VALID,19.2933,VALID,127,VALID,0,
2013-12-05, 03:14:04,VALID,914.818,VALID,0,VALID,97.1223,VALID,0.107441,VALID,19.3128,VALID,127,VALID,0,
2013-12-05, 03:15:04,VALID,914.846,VALID,0,VALID,97.1147,VALID,0,VALID,19.3338,VALID,127,VALID,0,
2013-12-05, 03:16:04,VALID,914.838,VALID,0,VALID,97.1299,VALID,0,VALID,19.3323,VALID,127,VALID,0,
2013-12-05, 03:17:04,VALID,914.848,VALID,0,VALID,97.1299,VALID,0,VALID,19.3713,VALID,127,VALID,0,
2013-12-05, 03:18:04,VALID,914.822,VALID,0,VALID,97.1299,VALID,0.107441,VALID,19.3908,VALID,127,VALID,0,
2013-12-05, 03:19:04,VALID,914.807,VALID,0,VALID,97.1223,VALID,0,VALID,19.3518,VALID,127,VALID,0,
2013-12-05, 03:20:04,VALID,914.794,VALID,0,VALID,97.1452,VALID,0,VALID,19.3128,VALID,127,VALID,0,
2013-12-05, 03:21:04,VALID,914.774,VALID,0,VALID,97.1452,VALID,0,VALID,19.3143,VALID,127,VALID,0,
2013-12-05, 03:22:04,VALID,914.733,VALID,0,VALID,97.1604,VALID,0,VALID,19.2738,VALID,127,VALID,0,
2013-12-05, 03:23:04,VALID,914.74,VALID,0,VALID,97.1604,VALID,0,VALID,19.2948,VALID,127,VALID,0,
2013-12-05, 03:24:04,VALID,914.709,VALID,0,VALID,97.1604,VALID,0,VALID,19.2962,VALID,127,VALID,0,
2013-12-05, 03:25:04,VALID,914.754,VALID,0,VALID,97.1528,VALID,0,VALID,19.2753,VALID,127,VALID,0,
2013-12-05, 03:26:04,VALID,914.754,VALID,0,VALID,97.1376,VALID,0,VALID,19.2738,VALID,126,VALID,0,
2013-12-05, 03:27:04,VALID,914.784,VALID,0,VALID,97.1528,VALID,0,VALID,19.2933,VALID,127,VALID,0,
2013-12-05, 03:28:04,VALID,914.791,VALID,0,VALID,97.1604,VALID,0,VALID,19.3323,VALID,127,VALID,0,
2013-12-05, 03:29:04,VALID,914.796,VALID,0.2,VALID,97.1528,VALID,0,VALID,19.3713,VALID,127,VALID,0,
2013-12-05, 03:30:04,VALID,914.795,VALID,0.2,VALID,97.1452,VALID,0,VALID,19.4103,VALID,126,VALID,0,
2013-12-05, 03:31:04,VALID,914.78,VALID,0,VALID,97.1528,VALID,0,VALID,19.4313,VALID,127,VALID,0,
2013-12-05, 03:32:04,VALID,914.779,VALID,0,VALID,97.1528,VALID,0.107441,VALID,19.4493,VALID,127,VALID,0,
2013-12-05, 03:33:04,VALID,914.774,VALID,0.2,VALID,97.1528,VALID,0.107441,VALID,19.4493,VALID,127,VALID,0,
2013-12-05, 03:34:04,VALID,914.813,VALID,0,VALID,97.1681,VALID,0.107441,VALID,19.4298,VALID,128,VALID,0,
2013-12-05, 03:35:04,VALID,914.795,VALID,0,VALID,97.1528,VALID,0,VALID,19.4298,VALID,128,VALID,0,
2013-12-05, 03:36:04,VALID,914.801,VALID,0,VALID,97.1528,VALID,0,VALID,19.4298,VALID,128,VALID,0,
2013-12-05, 03:37:04,VALID,914.777,VALID,0.2,VALID,97.1528,VALID,0,VALID,19.4298,VALID,128,VALID,0,
2013-12-05, 03:38:04,VALID,914.797,VALID,0,VALID,97.1376,VALID,0,VALID,19.4508,VALID,129,VALID,0,
2013-12-05, 03:39:04,VALID,914.796,VALID,0.2,VALID,97.1452,VALID,0,VALID,19.4103,VALID,128,VALID,0,
2013-12-05, 03:40:04,VALID,914.785,VALID,0.2,VALID,97.1452,VALID,0,VALID,19.4298,VALID,128,VALID,0,
2013-12-05, 03:41:04,VALID,914.803,VALID,0,VALID,97.1528,VALID,0.107441,VALID,19.4298,VALID,128,VALID,0,
2013-12-05, 03:42:04,VALID,914.793,VALID,0.2,VALID,97.1681,VALID,0.107441,VALID,19.4298,VALID,128,VALID,0,
2013-12-05, 03:43:04,VALID,914.78,VALID,0.2,VALID,97.1681,VALID,0,VALID,19.4508,VALID,128,VALID,0,
2013-12-05, 03:44:04,VALID,914.777,VALID,0.4,VALID,97.1528,VALID,0,VALID,19.5093,VALID,128,VALID,0,
2013-12-05, 03:45:04,VALID,914.774,VALID,0.2,VALID,97.1604,VALID,0,VALID,19.4913,VALID,128,VALID,0,
2013-12-05, 03:46:04,VALID,914.794,VALID,0.2,VALID,97.1681,VALID,0,VALID,19.4523,VALID,128,VALID,0,
2013-12-05, 03:47:04,VALID,914.805,VALID,0,VALID,97.1528,VALID,0,VALID,19.4313,VALID,128,VALID,0,
2013-12-05, 03:48:04,VALID,914.816,VALID,0.2,VALID,97.1833,VALID,0,VALID,19.4327,VALID,128,VALID,0,
2013-12-05, 03:49:04,VALID,914.844,VALID,0,VALID,97.1681,VALID,0,VALID,19.4118,VALID,128,VALID,0,
2013-12-05, 03:50:04,VALID,914.833,VALID,0,VALID,97.1528,VALID,0,VALID,19.4118,VALID,128,VALID,0,
2013-12-05, 03:51:04,VALID,914.812,VALID,0,VALID,97.1681,VALID,0,VALID,19.4508,VALID,128,VALID,0,
2013-12-05, 03:52:04,VALID,914.787,VALID,0,VALID,97.1757,VALID,0,VALID,19.4508,VALID,128,VALID,0,
2013-12-05, 03:53:04,VALID,914.777,VALID,0.2,VALID,97.1604,VALID,0,VALID,19.4703,VALID,128,VALID,0,
2013-12-05, 03:54:04,VALID,914.764,VALID,0,VALID,97.1757,VALID,0,VALID,19.4523,VALID,128,VALID,0,
2013-12-05, 03:55:04,VALID,914.763,VALID,0,VALID,97.1909,VALID,0,VALID,19.4118,VALID,128,VALID,0,
2013-12-05, 03:56:04,VALID,914.734,VALID,0.2,VALID,97.1909,VALID,0,VALID,19.3923,VALID,128,VALID,0,